Date String (YYYY-MM-DD hh:mm:ss) UTC,Instrument flags,Ambient pressure (hPa),Sample flow (lpm),Bypass flow (lpm),Sample temperature (°C),Ambient temperature (°C),ASC tube jacket temperature (°C),LED temperature (°C),Box temperature (°C),Sample RH (%),Span deviation,Mass concentration (μg/m³),Mass concentration (μg/m³),Mass concentration (μg/m³)
DateTimeUTC,F1_M11,P_M11,Q1_M11,Q2_M11,T1_M11,T2_M11,T3_M11,T4_M11,T5_M11,U1_M11,ZSPAN_M11,X0_M11,X2_M11,X1_M11
2023-01-31 06:00:00,,0827.3,4.99,0.00,22.6,22.9,00.0,31.3,24.5,04.5,0000.8,0015.95,0010.96,0010.14
2023-01-31 06:01:00,,0827.3,5.00,0.00,22.7,22.9,00.0,31.3,24.6,04.5,0000.6,0016.11,0010.98,0010.17
2023-01-31 06:02:00,,0827.3,5.01,0.00,22.7,22.3,00.0,31.4,24.5,04.5,0000.6,0016.32,0011.08,0010.27
2023-01-31 06:03:00,,0827.3,4.99,0.00,22.6,21.7,00.0,31.4,24.4,04.5,0000.3,0016.56,0011.16,0010.32
2023-01-31 06:04:00,,0827.2,4.99,0.00,22.6,21.3,00.0,31.4,24.2,04.5,0000.2,0016.49,0011.20,0010.35
2023-01-31 06:05:00,,0827.2,5.01,0.00,22.5,20.9,00.0,31.4,24.1,04.6,0000.4,0016.93,0011.26,0010.39
2023-01-31 06:06:00,,0827.2,4.99,0.00,22.4,20.7,00.0,31.4,24.0,04.6,0000.0,0017.52,0011.32,0010.43
2023-01-31 06:07:00,,0827.2,5.01,0.00,22.4,20.6,00.0,31.4,24.0,04.6,-000.2,0017.85,0011.41,0010.52
2023-01-31 06:08:00,,0827.2,5.01,0.00,22.4,21.6,00.0,31.3,24.2,04.6,-000.3,0018.02,0011.47,0010.58
2023-01-31 06:09:00,,0827.4,5.00,0.00,22.5,22.5,00.0,31.3,24.5,04.6,-000.3,0018.46,0011.50,0010.62
2023-01-31 06:10:00,,0827.2,4.99,0.00,22.6,22.7,00.0,31.3,24.5,04.6,-000.2,0018.40,0011.50,0010.66
2023-01-31 06:11:00,,0827.3,5.01,0.00,22.6,22.1,00.0,31.4,24.4,04.6,-000.3,0017.95,0011.53,0010.70
2023-01-31 06:12:00,,0827.2,4.99,0.00,22.6,21.6,00.0,31.4,24.3,04.6,-000.1,0017.53,0011.60,0010.76
2023-01-31 06:13:00,,0827.2,4.98,0.00,22.5,21.2,00.0,31.4,24.2,04.6,0000.1,0017.58,0011.63,0010.79
2023-01-31 06:14:00,,0827.2,5.02,0.00,22.4,20.8,00.0,31.4,24.0,04.6,0000.2,0017.42,0011.65,0010.81
2023-01-31 06:15:00,,0827.2,4.99,0.00,22.4,20.6,00.0,31.4,24.0,04.6,-000.0,0017.40,0011.67,0010.85
2023-01-31 06:16:00,,0827.2,5.00,0.00,22.4,21.0,00.0,31.3,24.0,04.7,-000.2,0017.33,0011.67,0010.88
2023-01-31 06:17:00,,0827.2,5.00,0.00,22.5,22.0,00.0,31.3,24.3,04.7,0000.1,0016.98,0011.71,0010.91
2023-01-31 06:18:00,,0827.2,5.04,0.00,22.6,22.9,00.0,31.3,24.5,04.7,0000.3,0016.63,0011.71,0010.93
2023-01-31 06:19:00,,0827.1,4.98,0.00,22.7,23.0,00.0,31.3,24.6,04.6,0000.5,0016.88,0011.77,0010.95
2023-01-31 06:20:00,,0827.1,4.98,0.00,22.7,22.4,00.0,31.4,24.5,04.6,0000.4,0017.23,0011.80,0010.98
2023-01-31 06:21:00,,0827.1,4.99,0.00,22.6,21.8,00.0,31.4,24.4,04.6,0000.4,0017.45,0011.92,0011.04
2023-01-31 06:22:00,,0827.1,4.98,0.00,22.6,21.4,00.0,31.4,24.3,04.7,0000.4,0017.60,0012.00,0011.08
2023-01-31 06:23:00,,0827.1,4.99,0.00,22.5,21.0,00.0,31.4,24.2,04.7,0000.0,0017.82,0012.06,0011.14
2023-01-31 06:24:00,,0827.1,4.98,0.00,22.5,20.7,00.0,31.4,24.0,04.7,-000.1,0017.94,0012.11,0011.18
2023-01-31 06:25:00,,0827.4,4.99,0.00,22.4,20.5,00.0,31.4,23.9,04.7,0000.2,0018.08,0012.18,0011.24
2023-01-31 06:26:00,,0827.5,5.00,0.00,22.4,20.8,00.0,31.3,24.0,04.7,0000.4,0018.47,0012.23,0011.31
2023-01-31 06:27:00,,0827.3,5.01,0.00,22.4,21.8,00.0,31.3,24.2,04.7,0000.5,0018.50,0012.34,0011.36
2023-01-31 06:28:00,,0827.1,4.98,0.00,22.6,22.7,00.0,31.3,24.5,04.7,0000.4,0018.58,0012.40,0011.41
2023-01-31 06:29:00,,0827.3,4.98,0.00,22.7,23.1,00.0,31.3,24.6,04.7,-000.0,0018.66,0012.44,0011.44
2023-01-31 06:30:00,,0827.0,5.00,0.00,22.7,22.6,00.0,31.4,24.6,04.6,-000.2,0018.58,0012.44,0011.48
2023-01-31 06:31:00,,0827.0,5.01,0.00,22.6,22.0,00.0,31.4,24.4,04.7,0000.1,0017.93,0012.50,0011.52
2023-01-31 06:32:00,,0826.9,4.99,0.00,22.6,21.6,00.0,31.4,24.3,04.7,0000.2,0017.91,0012.51,0011.53
2023-01-31 06:33:00,,0826.9,4.99,0.00,22.5,21.2,00.0,31.4,24.2,04.7,0000.2,0017.95,0012.52,0011.54
2023-01-31 06:34:00,,0826.9,5.00,0.00,22.5,20.9,00.0,31.4,24.1,04.7,0000.7,0017.94,0012.53,0011.55
2023-01-31 06:35:00,,0826.9,4.99,0.00,22.4,20.7,00.0,31.4,24.0,04.7,0001.0,0018.04,0012.57,0011.57
2023-01-31 06:36:00,,0826.9,5.00,0.00,22.4,20.8,00.0,31.4,24.0,04.7,0000.9,0017.98,0012.62,0011.60
2023-01-31 06:37:00,,0827.1,5.01,0.00,22.5,21.8,00.0,31.3,24.3,04.7,0001.0,0017.73,0012.65,0011.60
2023-01-31 06:38:00,,0826.9,5.00,0.00,22.6,22.7,00.0,31.3,24.5,04.7,0001.3,0017.58,0012.65,0011.63
2023-01-31 06:39:00,,0826.9,5.00,0.00,22.7,22.6,00.0,31.4,24.6,04.7,0001.3,0017.44,0012.65,0011.66
2023-01-31 06:40:00,,0826.8,4.99,0.00,22.6,22.1,00.0,31.4,24.5,04.7,0001.5,0017.54,0012.68,0011.67
2023-01-31 06:41:00,,0827.0,4.98,0.00,22.6,21.7,00.0,31.4,24.3,04.7,0001.6,0017.64,0012.73,0011.69
2023-01-31 06:42:00,,0827.0,4.98,0.00,22.6,21.2,00.0,31.4,24.2,04.7,0001.6,0017.70,0012.73,0011.67
2023-01-31 06:43:00,,0827.3,5.01,0.00,22.5,20.9,00.0,31.4,24.1,04.7,0001.6,0017.68,0012.74,0011.68
2023-01-31 06:44:00,,0827.0,4.99,0.00,22.4,20.7,00.0,31.4,24.0,04.8,0001.9,0017.94,0012.77,0011.71
2023-01-31 06:45:00,,0827.0,5.01,0.00,22.4,20.5,00.0,31.4,23.9,04.8,0001.8,0018.24,0012.80,0011.74
2023-01-31 06:46:00,,0827.3,5.00,0.00,22.4,21.2,00.0,31.3,24.1,04.8,0001.6,0018.17,0012.80,0011.74
2023-01-31 06:47:00,,0826.8,5.00,0.00,22.5,22.2,00.0,31.3,24.3,04.8,0001.3,0018.18,0012.81,0011.71
2023-01-31 06:48:00,,0827.0,4.99,0.00,22.6,23.0,00.0,31.3,24.6,04.7,0001.2,0018.09,0012.81,0011.72
2023-01-31 06:49:00,,0827.1,5.01,0.00,22.7,23.1,00.0,31.3,24.7,04.7,0000.8,0018.07,0012.81,0011.71
2023-01-31 06:50:00,,0827.1,5.01,0.00,22.7,22.5,00.0,31.4,24.6,04.7,0000.7,0018.02,0012.78,0011.66
2023-01-31 06:51:00,,0827.1,5.00,0.00,22.7,22.0,00.0,31.4,24.4,04.7,0000.9,0018.11,0012.79,0011.63
2023-01-31 06:52:00,,0827.0,5.00,0.00,22.6,21.5,00.0,31.4,24.3,04.7,0000.8,0018.14,0012.78,0011.60
2023-01-31 06:53:00,,0827.0,5.02,0.00,22.6,21.2,00.0,31.4,24.1,04.7,0000.7,0018.05,0012.76,0011.58
2023-01-31 06:54:00,,0827.3,5.01,0.00,22.5,20.9,00.0,31.4,24.1,04.8,0000.6,0017.87,0012.71,0011.55
2023-01-31 06:55:00,,0827.1,5.00,0.00,22.4,20.8,00.0,31.4,24.0,04.8,0000.5,0017.41,0012.62,0011.50
2023-01-31 06:56:00,,0827.1,5.00,0.00,22.4,20.6,00.0,31.4,23.9,04.8,0000.4,0016.99,0012.57,0011.46
2023-01-31 06:57:00,,0826.9,5.01,0.00,22.4,21.1,00.0,31.3,24.1,04.8,0000.7,0017.31,0012.53,0011.42
2023-01-31 06:58:00,,0826.9,5.00,0.00,22.5,22.2,00.0,31.3,24.3,04.8,0001.1,0017.18,0012.45,0011.39
2023-01-31 06:59:00,,0826.8,5.01,0.00,22.6,22.9,00.0,31.3,24.6,04.8,0001.3,0017.10,0012.39,0011.34
